Weather in Velyki Sorochintsi

Ukraine / Poltava Region     50°01′19″N   33°56′48″E
temp.,
°C
wind,
m/s
gust,
m/s
humid.,
%
clouds,
%
prec.,
mm/h
press.,
hPa
HPBL,
m
7 may, fri
fri700:00+7sw22958 0.1 101320
03:00+6wsw359646 0.1 101493
06:00+6wnw11925 0.0 101417
09:00+12w1167100 0.0 1015392
12:00+16ssw344395 0.0 10151702
15:00+16s464598 0.0 10141729
18:00+16sse5856100 0.0 1012791
21:00+13se61459100 0.0 1011464
8 may, sat
sat800:00+13s81661100 0.4 1009654
03:00+12s7148199 0.9 1008718
06:00+12s71486100 0.2 1006840
09:00+12ssw71189100 1.4 1006719
12:00+12w6992100 4.5 1008684
15:00+10wnw81082100 4.6 1010982
18:00+11w61069100 0.1 10111449
21:00+6wnw7128079 0.1 1014753
9 may, sun
sun900:00+6nw5118185 0.1 10161067
03:00+4wnw613900 0.1 1017549
06:00+4wnw613890 0.0 1019459
09:00+8nw813580 0.0 10201199
12:00+11nw912485 0.0 10211791
15:00+13nnw8114479 0.0 10222531
18:00+12nnw610545 0.0 10232199
21:00+7nnw35710 0.0 102668
10 may, mon
mon1000:00+5nnw35750 0.0 102783
03:00+4nnw377610 0.0 1027112
06:00+4nnw38770 0.0 1028157
09:00+11n57590 0.0 1028597
12:00+14n79440 0.0 10271828
15:00+15n911456 0.0 10241869
18:00+14nne7125891 0.0 10241524
21:00+12nne7136094 0.0 1024846
11 may, tue
tue1100:00+10n71464100 0.0 1023506
03:00+10nne61369100 0.0 1022452
06:00+9nne61278100 0.0 1021341
09:00+14nne7127526 0.0 1020512
12:00+19ne9126466 0.0 10191332
15:00+15e81281100 0.6 1020967
18:00+14e711623 0.0 10211581
21:00+9ene410754 0.0 1023308